Regional Weather Roundup
Issued by NWS

Home | Current Version | Previous Version | Text Only | Print | Product List | Glossary On
Versions: 1 2 3 4 5 6 7 8 9 10 11 12 13 14 15 16 17 18 19 20 21 22 23 24 25 26 27 28 29 30 31 32 33 34 35 36 37 38 39 40 41 42 43 44 45 46 47 48 49 50
000
ASUS43 KTOP 232259
RWRKS

WEATHER ROUNDUP FOR KANSAS
NATIONAL WEATHER SERVICE GOODLAND KS
600 PM CDT THU MAR 23 2017

NOTE:  "FAIR" INDICATES FEW OR NO CLOUDS BELOW 12,000 FEET WITH NO
SIGNIFICANT WEATHER AND/OR OBSTRUCTIONS TO VISIBILITY.

KSZ001>006-013>018-027>032-041>047-240000-
NORTHWEST KANSAS

CITY           SKY/WX    TMP DP  RH WIND       PRES   REMARKS
GOODLAND       SUNNY     85  15   7 S35G48    29.46F
HAYS             N/A     80  52  37 S31G44    29.56F
HILL CITY      PTSUNNY   82  51  34 S28G44    29.53F
RUSSELL        SUNNY     81  51  35 S30G44    29.58F
$$

KSZ061>065-074>080-084>089-240000-
SOUTHWEST KANSAS

CITY           SKY/WX    TMP DP  RH WIND       PRES   REMARKS
DODGE CITY     CLOUDY    80  47  31 S33G43    29.58F HAZE
ELKHART          N/A     61  41  48 SW9         N/A
GARDEN CITY    SUNNY     83  39  21 S32G44    29.51F
GREAT BEND     MOSUNNY   77  56  48 S26G38    29.62R
LIBERAL        CLOUDY    81  46  30 S36G45    29.54F
$$

KSZ066>073-081>083-090>101-240000-
SOUTHEAST KANSAS

CITY           SKY/WX    TMP DP  RH WIND       PRES   REMARKS
CHANUTE        SUNNY     76  48  37 S24G35    29.81F
COFFEYVILLE    SUNNY     78  51  38 S22G33    29.82F
HUTCHINSON     SUNNY     80  51  36 S28G38    29.67F
MEDICINE LODGE   N/A     79  49  34 S29G38    29.64F
NEWTON         SUNNY     78  54  43 S28G35    29.70F
PARSONS        SUNNY     77  49  37 S16G30    29.83F
WICHITA INTL   MOSUNNY   81  51  35 S23G38    29.69F
WICHITA JABRA  SUNNY     79  53  40 S28G40    29.70F
WINFIELD       SUNNY     81  50  33 S30G38    29.73F
$$

KSZ007>012-019>026-033>040-048>060-102>105-240000-
NORTHEAST KANSAS

CITY           SKY/WX    TMP DP  RH WIND       PRES   REMARKS
CONCORDIA      CLOUDY    72  58  61 S21G35    29.64F
EMPORIA        SUNNY     76  51  41 S25G32    29.74F
LAWRENCE       SUNNY     80  51  36 S21G30    29.75F
MANHATTAN      MOSUNNY   78  53  41 S22G30    29.68F
OLATHE IND     SUNNY     77  48  35 S23G33    29.78F
OLATHE EXE     SUNNY     77  48  35 S23G35    29.79S
SALINA         PTSUNNY   78  57  48 S26G37    29.64F
TOPEKA BILLARD SUNNY     78  52  40 S23G31    29.74F
TOPEKA FORBES  SUNNY     77  50  38 S22G35    29.74F
$$




USA.gov is the U.S. government's official web portal to all federal, state and local government web resources and services.